Year,Month,Day,Hour,Minute,Value (Times are PST for insolation in W/m^2)
2010,05,21,00,00,0.00
2010,05,21,00,01,0.00
2010,05,21,00,02,0.00
2010,05,21,00,03,0.00
2010,05,21,00,04,0.00
2010,05,21,00,05,0.00
2010,05,21,00,06,0.00
2010,05,21,00,07,0.00
2010,05,21,00,08,0.00
2010,05,21,00,09,0.00
2010,05,21,00,10,0.00
2010,05,21,00,11,0.00
2010,05,21,00,12,0.00
2010,05,21,00,13,0.00
2010,05,21,00,14,0.00
2010,05,21,00,15,0.00
2010,05,21,00,16,0.00
2010,05,21,00,17,0.00
2010,05,21,00,18,0.00
2010,05,21,00,19,0.00
2010,05,21,00,20,0.00
2010,05,21,00,21,0.00
2010,05,21,00,22,0.00
2010,05,21,00,23,0.00
2010,05,21,00,24,0.00
2010,05,21,00,25,0.00
2010,05,21,00,26,0.00
2010,05,21,00,27,0.00
2010,05,21,00,28,0.00
2010,05,21,00,29,0.00
2010,05,21,00,30,0.00
2010,05,21,00,31,0.00
2010,05,21,00,32,0.00
2010,05,21,00,33,0.00
2010,05,21,00,34,0.00
2010,05,21,00,35,0.00
2010,05,21,00,36,0.00
2010,05,21,00,37,0.00
2010,05,21,00,38,0.00
2010,05,21,00,39,0.00
2010,05,21,00,40,0.00
2010,05,21,00,41,0.00
2010,05,21,00,42,0.00
2010,05,21,00,43,0.00
2010,05,21,00,44,0.00
2010,05,21,00,45,0.00
2010,05,21,00,46,0.00
2010,05,21,00,47,0.00
2010,05,21,00,48,0.00
2010,05,21,00,49,0.00
2010,05,21,00,50,0.00
2010,05,21,00,51,0.00
2010,05,21,00,52,0.00
2010,05,21,00,53,0.00
2010,05,21,00,54,0.00
2010,05,21,00,55,0.00
2010,05,21,00,56,0.00
2010,05,21,00,57,0.00
2010,05,21,00,58,0.00
2010,05,21,00,59,0.00
2010,05,21,01,00,0.00
2010,05,21,01,01,0.00
2010,05,21,01,02,0.00
2010,05,21,01,03,0.00
2010,05,21,01,04,0.00
2010,05,21,01,05,0.00
2010,05,21,01,06,0.00
2010,05,21,01,07,0.00
2010,05,21,01,08,0.00
2010,05,21,01,09,0.00
2010,05,21,01,10,0.00
2010,05,21,01,11,0.00
2010,05,21,01,12,0.00
2010,05,21,01,13,0.00
2010,05,21,01,14,0.00
2010,05,21,01,15,0.00
2010,05,21,01,16,0.00
2010,05,21,01,17,0.00
2010,05,21,01,18,0.00
2010,05,21,01,19,0.00
2010,05,21,01,20,0.00
2010,05,21,01,21,0.00
2010,05,21,01,22,0.00
2010,05,21,01,23,0.00
2010,05,21,01,24,0.00
2010,05,21,01,25,0.00
2010,05,21,01,26,0.00
2010,05,21,01,27,0.00
2010,05,21,01,28,0.00
2010,05,21,01,29,0.00
2010,05,21,01,30,0.00
2010,05,21,01,31,0.00
2010,05,21,01,32,0.00
2010,05,21,01,33,0.00
2010,05,21,01,34,0.00
2010,05,21,01,35,0.00
2010,05,21,01,36,0.00
2010,05,21,01,37,0.00
2010,05,21,01,38,0.00
2010,05,21,01,39,0.00
2010,05,21,01,40,0.00
2010,05,21,01,41,0.00
2010,05,21,01,42,0.00
2010,05,21,01,43,0.00
2010,05,21,01,44,0.00
2010,05,21,01,45,0.00
2010,05,21,01,46,0.00
2010,05,21,01,47,0.00
2010,05,21,01,48,0.00
2010,05,21,01,49,0.00
2010,05,21,01,50,0.00
2010,05,21,01,51,0.00
2010,05,21,01,52,0.00
2010,05,21,01,53,0.00
2010,05,21,01,54,0.00
2010,05,21,01,55,0.00
2010,05,21,01,56,0.00
2010,05,21,01,57,0.00
2010,05,21,01,58,0.00
2010,05,21,01,59,0.00
2010,05,21,02,00,0.00
2010,05,21,02,01,0.00
2010,05,21,02,02,0.00
2010,05,21,02,03,0.00
2010,05,21,02,04,0.00
2010,05,21,02,05,0.00
2010,05,21,02,06,0.00
2010,05,21,02,07,0.00
2010,05,21,02,08,0.00
2010,05,21,02,09,0.00
2010,05,21,02,10,0.00
2010,05,21,02,11,0.00
2010,05,21,02,12,0.00
2010,05,21,02,13,0.00
2010,05,21,02,14,0.00
2010,05,21,02,15,0.00
2010,05,21,02,16,0.00
2010,05,21,02,17,0.00
2010,05,21,02,18,0.00
2010,05,21,02,19,0.00
2010,05,21,02,20,0.00
2010,05,21,02,21,0.00
2010,05,21,02,22,0.00
2010,05,21,02,23,0.00
2010,05,21,02,24,0.00
2010,05,21,02,25,0.00
2010,05,21,02,26,0.00
2010,05,21,02,27,0.00
2010,05,21,02,28,0.00
2010,05,21,02,29,0.00
2010,05,21,02,30,0.00
2010,05,21,02,31,0.00
2010,05,21,02,32,0.00
2010,05,21,02,33,0.00
2010,05,21,02,34,0.00
2010,05,21,02,35,0.00
2010,05,21,02,36,0.00
2010,05,21,02,37,0.00
2010,05,21,02,38,0.00
2010,05,21,02,39,0.00
2010,05,21,02,40,0.00
2010,05,21,02,41,0.00
2010,05,21,02,42,0.00
2010,05,21,02,43,0.00
2010,05,21,02,44,0.00
2010,05,21,02,45,0.00
2010,05,21,02,46,0.00
2010,05,21,02,47,0.00
2010,05,21,02,48,0.00
2010,05,21,02,49,0.00
2010,05,21,02,50,0.00
2010,05,21,02,51,0.00
2010,05,21,02,52,0.00
2010,05,21,02,53,0.00
2010,05,21,02,54,0.00
2010,05,21,02,55,0.00
2010,05,21,02,56,0.00
2010,05,21,02,57,0.00
2010,05,21,02,58,0.00
2010,05,21,02,59,0.00
2010,05,21,03,00,0.00
2010,05,21,03,01,0.00
2010,05,21,03,02,0.00
2010,05,21,03,03,0.00
2010,05,21,03,04,0.00
2010,05,21,03,05,0.00
2010,05,21,03,06,0.00
2010,05,21,03,07,0.00
2010,05,21,03,08,0.00
2010,05,21,03,09,0.00
2010,05,21,03,10,0.00
2010,05,21,03,11,0.00
2010,05,21,03,12,0.00
2010,05,21,03,13,0.00
2010,05,21,03,14,0.00
2010,05,21,03,15,0.00
2010,05,21,03,16,0.00
2010,05,21,03,17,0.00
2010,05,21,03,18,0.00
2010,05,21,03,19,0.00
2010,05,21,03,20,0.00
2010,05,21,03,21,0.00
2010,05,21,03,22,0.00
2010,05,21,03,23,0.00
2010,05,21,03,24,0.00
2010,05,21,03,25,0.00
2010,05,21,03,26,0.00
2010,05,21,03,27,0.00
2010,05,21,03,28,0.00
2010,05,21,03,29,0.00
2010,05,21,03,30,0.00
2010,05,21,03,31,0.00
2010,05,21,03,32,0.00
2010,05,21,03,33,0.00
2010,05,21,03,34,0.00
2010,05,21,03,35,0.00
2010,05,21,03,36,0.00
2010,05,21,03,37,0.00
2010,05,21,03,38,0.00
2010,05,21,03,39,0.00
2010,05,21,03,40,0.00
2010,05,21,03,41,0.00
2010,05,21,03,42,0.00
2010,05,21,03,43,0.00
2010,05,21,03,44,0.00
2010,05,21,03,45,0.00
2010,05,21,03,46,0.00
2010,05,21,03,47,0.00
2010,05,21,03,48,0.00
2010,05,21,03,49,0.00
2010,05,21,03,50,0.00
2010,05,21,03,51,0.00
2010,05,21,03,52,0.00
2010,05,21,03,53,0.00
2010,05,21,03,54,0.00
2010,05,21,03,55,0.00
2010,05,21,03,56,0.00
2010,05,21,03,57,0.00
2010,05,21,03,58,0.00
2010,05,21,03,59,0.00
2010,05,21,04,00,0.00
2010,05,21,04,01,0.00
2010,05,21,04,02,0.00
2010,05,21,04,03,0.00
2010,05,21,04,04,0.00
2010,05,21,04,05,0.00
2010,05,21,04,06,0.00
2010,05,21,04,07,0.00
2010,05,21,04,08,0.00
2010,05,21,04,09,0.00
2010,05,21,04,10,0.00
2010,05,21,04,11,0.00
2010,05,21,04,12,0.00
2010,05,21,04,13,0.00
2010,05,21,04,14,0.00
2010,05,21,04,15,0.00
2010,05,21,04,16,0.00
2010,05,21,04,17,0.00
2010,05,21,04,18,0.00
2010,05,21,04,19,0.00
2010,05,21,04,20,0.00
2010,05,21,04,21,0.00
2010,05,21,04,22,0.00
2010,05,21,04,23,0.00
2010,05,21,04,24,0.00
2010,05,21,04,25,0.00
2010,05,21,04,26,0.00
2010,05,21,04,27,0.00
2010,05,21,04,28,0.00
2010,05,21,04,29,0.00
2010,05,21,04,30,0.00
2010,05,21,04,31,0.00
2010,05,21,04,32,0.00
2010,05,21,04,33,0.00
2010,05,21,04,34,0.00
2010,05,21,04,35,0.00
2010,05,21,04,36,0.00
2010,05,21,04,37,0.00
2010,05,21,04,38,0.00
2010,05,21,04,39,0.00
2010,05,21,04,40,0.00
2010,05,21,04,41,0.00
2010,05,21,04,42,0.00
2010,05,21,04,43,0.00
2010,05,21,04,44,0.00
2010,05,21,04,45,0.00
2010,05,21,04,46,0.00
2010,05,21,04,47,0.00
2010,05,21,04,48,0.00
2010,05,21,04,49,0.00
2010,05,21,04,50,0.00
2010,05,21,04,51,0.00
2010,05,21,04,52,0.00
2010,05,21,04,53,0.00
2010,05,21,04,54,0.00
2010,05,21,04,55,0.00
2010,05,21,04,56,0.00
2010,05,21,04,57,0.00
2010,05,21,04,58,0.00
2010,05,21,04,59,0.00
2010,05,21,05,00,0.00
2010,05,21,05,01,0.00
2010,05,21,05,02,0.00
2010,05,21,05,03,0.00
2010,05,21,05,04,0.00
2010,05,21,05,05,0.00
2010,05,21,05,06,0.00
2010,05,21,05,07,0.00
2010,05,21,05,08,0.00
2010,05,21,05,09,0.00
2010,05,21,05,10,0.00
2010,05,21,05,11,0.00
2010,05,21,05,12,0.00
2010,05,21,05,13,0.00
2010,05,21,05,14,0.00
2010,05,21,05,15,0.00
2010,05,21,05,16,0.00
2010,05,21,05,17,0.00
2010,05,21,05,18,0.00
2010,05,21,05,19,0.00
2010,05,21,05,20,0.00
2010,05,21,05,21,0.00
2010,05,21,05,22,0.00
2010,05,21,05,23,0.00
2010,05,21,05,24,0.00
2010,05,21,05,25,0.00
2010,05,21,05,26,0.00
2010,05,21,05,27,0.00
2010,05,21,05,28,0.00
2010,05,21,05,29,0.00
2010,05,21,05,30,0.00
2010,05,21,05,31,0.00
2010,05,21,05,32,0.00
2010,05,21,05,33,0.00
2010,05,21,05,34,0.00
2010,05,21,05,35,0.00
2010,05,21,05,36,0.00
2010,05,21,05,37,0.00
2010,05,21,05,38,0.00
2010,05,21,05,39,0.00
2010,05,21,05,40,0.00
2010,05,21,05,41,0.00
2010,05,21,05,42,0.00
2010,05,21,05,43,0.00
2010,05,21,05,44,0.00
2010,05,21,05,45,0.00
2010,05,21,05,46,4.50
2010,05,21,05,47,5.00
2010,05,21,05,48,5.10
2010,05,21,05,49,7.00
2010,05,21,05,50,7.00
2010,05,21,05,51,7.50
2010,05,21,05,52,9.00
2010,05,21,05,53,9.00
2010,05,21,05,54,9.90
2010,05,21,05,55,11.00
2010,05,21,05,56,11.00
2010,05,21,05,57,11.60
2010,05,21,05,58,12.00
2010,05,21,05,59,12.00
2010,05,21,06,00,13.70
2010,05,21,06,01,15.80
2010,05,21,06,02,17.80
2010,05,21,06,03,19.20
2010,05,21,06,04,23.50
2010,05,21,06,05,26.40
2010,05,21,06,06,29.10
2010,05,21,06,07,32.90
2010,05,21,06,08,36.50
2010,05,21,06,09,40.40
2010,05,21,06,10,44.50
2010,05,21,06,11,49.30
2010,05,21,06,12,52.90
2010,05,21,06,13,56.80
2010,05,21,06,14,61.20
2010,05,21,06,15,64.50
2010,05,21,06,16,68.40
2010,05,21,06,17,70.00
2010,05,21,06,18,70.00
2010,05,21,06,19,69.80
2010,05,21,06,20,68.60
2010,05,21,06,21,66.50
2010,05,21,06,22,64.40
2010,05,21,06,23,62.70
2010,05,21,06,24,61.10
2010,05,21,06,25,57.90
2010,05,21,06,26,54.30
2010,05,21,06,27,51.70
2010,05,21,06,28,49.60
2010,05,21,06,29,47.40
2010,05,21,06,30,44.50
2010,05,21,06,31,40.40
2010,05,21,06,32,37.20
2010,05,21,06,33,34.70
2010,05,21,06,34,32.00
2010,05,21,06,35,31.20
2010,05,21,06,36,28.00
2010,05,21,06,37,27.30
2010,05,21,06,38,25.60
2010,05,21,06,39,24.10
2010,05,21,06,40,23.00
2010,05,21,06,41,21.80
2010,05,21,06,42,21.00
2010,05,21,06,43,21.00
2010,05,21,06,44,22.50
2010,05,21,06,45,23.00
2010,05,21,06,46,23.00
2010,05,21,06,47,23.00
2010,05,21,06,48,25.10
2010,05,21,06,49,26.30
2010,05,21,06,50,28.00
2010,05,21,06,51,28.50
2010,05,21,06,52,30.90
2010,05,21,06,53,33.00
2010,05,21,06,54,33.00
2010,05,21,06,55,32.50
2010,05,21,06,56,30.80
2010,05,21,06,57,30.00
2010,05,21,06,58,28.60
2010,05,21,06,59,29.60
2010,05,21,07,00,31.70
2010,05,21,07,01,34.70
2010,05,21,07,02,39.70
2010,05,21,07,03,44.20
2010,05,21,07,04,49.40
2010,05,21,07,05,53.20
2010,05,21,07,06,54.50
2010,05,21,07,07,55.40
2010,05,21,07,08,54.00
2010,05,21,07,09,54.00
2010,05,21,07,10,55.10
2010,05,21,07,11,57.20
2010,05,21,07,12,56.70
2010,05,21,07,13,53.90
2010,05,21,07,14,47.50
2010,05,21,07,15,42.60
2010,05,21,07,16,39.50
2010,05,21,07,17,35.20
2010,05,21,07,18,33.00
2010,05,21,07,19,31.80
2010,05,21,07,20,30.00
2010,05,21,07,21,30.00
2010,05,21,07,22,30.00
2010,05,21,07,23,32.00
2010,05,21,07,24,37.40
2010,05,21,07,25,41.10
2010,05,21,07,26,43.20
2010,05,21,07,27,44.00
2010,05,21,07,28,47.40
2010,05,21,07,29,52.00
2010,05,21,07,30,57.20
2010,05,21,07,31,64.00
2010,05,21,07,32,69.70
2010,05,21,07,33,72.30
2010,05,21,07,34,77.00
2010,05,21,07,35,75.90
2010,05,21,07,36,69.60
2010,05,21,07,37,61.40
2010,05,21,07,38,57.30
2010,05,21,07,39,56.00
2010,05,21,07,40,56.00
2010,05,21,07,41,57.20
2010,05,21,07,42,55.40
2010,05,21,07,43,50.50
2010,05,21,07,44,45.10
2010,05,21,07,45,40.60
2010,05,21,07,46,39.10
2010,05,21,07,47,37.20
2010,05,21,07,48,39.10
2010,05,21,07,49,40.60
2010,05,21,07,50,44.40
2010,05,21,07,51,46.30
2010,05,21,07,52,47.00
2010,05,21,07,53,47.70
2010,05,21,07,54,50.80
2010,05,21,07,55,53.00
2010,05,21,07,56,53.00
2010,05,21,07,57,51.70
2010,05,21,07,58,51.00
2010,05,21,07,59,52.60
2010,05,21,08,00,53.00
2010,05,21,08,01,53.90
2010,05,21,08,02,55.90
2010,05,21,08,03,60.00
2010,05,21,08,04,60.20
2010,05,21,08,05,62.60
2010,05,21,08,06,67.40
2010,05,21,08,07,77.60
2010,05,21,08,08,89.60
2010,05,21,08,09,96.30
2010,05,21,08,10,96.40
2010,05,21,08,11,91.20
2010,05,21,08,12,82.30
2010,05,21,08,13,75.60
2010,05,21,08,14,72.50
2010,05,21,08,15,75.40
2010,05,21,08,16,80.50
2010,05,21,08,17,84.00
2010,05,21,08,18,90.30
2010,05,21,08,19,96.60
2010,05,21,08,20,107.30
2010,05,21,08,21,116.50
2010,05,21,08,22,115.90
2010,05,21,08,23,107.20
2010,05,21,08,24,102.00
2010,05,21,08,25,100.00
2010,05,21,08,26,98.00
2010,05,21,08,27,102.20
2010,05,21,08,28,105.00
2010,05,21,08,29,104.20
2010,05,21,08,30,106.50
2010,05,21,08,31,112.90
2010,05,21,08,32,131.10
2010,05,21,08,33,158.40
2010,05,21,08,34,185.40
2010,05,21,08,35,209.80
2010,05,21,08,36,209.60
2010,05,21,08,37,196.50
2010,05,21,08,38,188.20
2010,05,21,08,39,181.20
2010,05,21,08,40,169.20
2010,05,21,08,41,156.10
2010,05,21,08,42,144.70
2010,05,21,08,43,136.60
2010,05,21,08,44,134.20
2010,05,21,08,45,140.50
2010,05,21,08,46,158.20
2010,05,21,08,47,173.30
2010,05,21,08,48,190.70
2010,05,21,08,49,205.40
2010,05,21,08,50,215.90
2010,05,21,08,51,221.20
2010,05,21,08,52,210.60
2010,05,21,08,53,191.00
2010,05,21,08,54,171.40
2010,05,21,08,55,154.60
2010,05,21,08,56,144.50
2010,05,21,08,57,138.80
2010,05,21,08,58,133.50
2010,05,21,08,59,124.90
2010,05,21,09,00,123.00
2010,05,21,09,01,110.40
2010,05,21,09,02,109.00
2010,05,21,09,03,114.60
2010,05,21,09,04,127.20
2010,05,21,09,05,141.10
2010,05,21,09,06,151.40
2010,05,21,09,07,161.10
2010,05,21,09,08,172.60
2010,05,21,09,09,191.40
2010,05,21,09,10,221.50
2010,05,21,09,11,259.30
2010,05,21,09,12,274.00
2010,05,21,09,13,310.10
2010,05,21,09,14,300.10
2010,05,21,09,15,237.10
2010,05,21,09,16,200.20
2010,05,21,09,17,182.60
2010,05,21,09,18,174.20
2010,05,21,09,19,179.10
2010,05,21,09,20,190.50
2010,05,21,09,21,201.50
2010,05,21,09,22,206.30
2010,05,21,09,23,205.80
2010,05,21,09,24,201.80
2010,05,21,09,25,199.00
2010,05,21,09,26,199.60
2010,05,21,09,27,203.60
2010,05,21,09,28,211.90
2010,05,21,09,29,226.00
2010,05,21,09,30,241.80
2010,05,21,09,31,239.80
2010,05,21,09,32,291.20
2010,05,21,09,33,270.10
2010,05,21,09,34,259.90
2010,05,21,09,35,244.70
2010,05,21,09,36,221.20
2010,05,21,09,37,197.40
2010,05,21,09,38,179.80
2010,05,21,09,39,167.30
2010,05,21,09,40,156.20
2010,05,21,09,41,144.10
2010,05,21,09,42,134.60
2010,05,21,09,43,127.10
2010,05,21,09,44,121.80
2010,05,21,09,45,121.00
2010,05,21,09,46,124.40
2010,05,21,09,47,129.70
2010,05,21,09,48,145.00
2010,05,21,09,49,212.60
2010,05,21,09,50,289.00
2010,05,21,09,51,310.60
2010,05,21,09,52,335.00
2010,05,21,09,53,348.80
2010,05,21,09,54,337.20
2010,05,21,09,55,313.00
2010,05,21,09,56,293.50
2010,05,21,09,57,274.90
2010,05,21,09,58,267.70
2010,05,21,09,59,270.20
2010,05,21,10,00,271.00
2010,05,21,10,01,261.60
2010,05,21,10,02,238.20
2010,05,21,10,03,225.40
2010,05,21,10,04,232.00
2010,05,21,10,05,232.00
2010,05,21,10,06,361.80
2010,05,21,10,07,751.00
2010,05,21,10,08,633.90
2010,05,21,10,09,444.60
2010,05,21,10,10,413.00
2010,05,21,10,11,413.00
2010,05,21,10,12,346.70
2010,05,21,10,13,292.30
2010,05,21,10,14,285.00
2010,05,21,10,15,233.80
2010,05,21,10,16,195.90
2010,05,21,10,17,173.10
2010,05,21,10,18,155.60
2010,05,21,10,19,148.90
2010,05,21,10,20,148.20
2010,05,21,10,21,150.00
2010,05,21,10,22,153.00
2010,05,21,10,23,152.20
2010,05,21,10,24,150.10
2010,05,21,10,25,149.00
2010,05,21,10,26,152.50
2010,05,21,10,27,161.00
2010,05,21,10,28,172.70
2010,05,21,10,29,179.90
2010,05,21,10,30,184.40
2010,05,21,10,31,187.70
2010,05,21,10,32,190.00
2010,05,21,10,33,187.60
2010,05,21,10,34,179.60
2010,05,21,10,35,169.90
2010,05,21,10,36,158.30
2010,05,21,10,37,144.30
2010,05,21,10,38,134.40
2010,05,21,10,39,127.60
2010,05,21,10,40,122.90
2010,05,21,10,41,118.20
2010,05,21,10,42,112.80
2010,05,21,10,43,104.80
2010,05,21,10,44,96.70
2010,05,21,10,45,90.80
2010,05,21,10,46,84.90
2010,05,21,10,47,83.00
2010,05,21,10,48,84.20
2010,05,21,10,49,88.80
2010,05,21,10,50,94.90
2010,05,21,10,51,107.70
2010,05,21,10,52,125.60
2010,05,21,10,53,135.20
2010,05,21,10,54,138.90
2010,05,21,10,55,137.80
2010,05,21,10,56,130.60
2010,05,21,10,57,122.40
2010,05,21,10,58,120.00
2010,05,21,10,59,120.80
2010,05,21,11,00,124.40
2010,05,21,11,01,126.80
2010,05,21,11,02,127.90
2010,05,21,11,03,128.00
2010,05,21,11,04,128.00
2010,05,21,11,05,127.80
2010,05,21,11,06,127.00
2010,05,21,11,07,127.90
2010,05,21,11,08,131.80
2010,05,21,11,09,140.20
2010,05,21,11,10,152.30
2010,05,21,11,11,166.10
2010,05,21,11,12,182.10
2010,05,21,11,13,200.60
2010,05,21,11,14,219.40
2010,05,21,11,15,236.60
2010,05,21,11,16,245.30
2010,05,21,11,17,244.10
2010,05,21,11,18,231.30
2010,05,21,11,19,216.40
2010,05,21,11,20,204.90
2010,05,21,11,21,194.60
2010,05,21,11,22,185.20
2010,05,21,11,23,176.20
2010,05,21,11,24,167.80
2010,05,21,11,25,160.50
2010,05,21,11,26,156.80
2010,05,21,11,27,156.00
2010,05,21,11,28,157.50
2010,05,21,11,29,161.20
2010,05,21,11,30,167.90
2010,05,21,11,31,179.20
2010,05,21,11,32,199.00
2010,05,21,11,33,220.90
2010,05,21,11,34,238.30
2010,05,21,11,35,246.80
2010,05,21,11,36,251.30
2010,05,21,11,37,258.30
2010,05,21,11,38,270.20
2010,05,21,11,39,284.60
2010,05,21,11,40,300.50
2010,05,21,11,41,324.60
2010,05,21,11,42,324.60
2010,05,21,11,43,262.70
2010,05,21,11,44,221.70
2010,05,21,11,45,202.40
2010,05,21,11,46,186.50
2010,05,21,11,47,174.60
2010,05,21,11,48,162.60
2010,05,21,11,49,153.40
2010,05,21,11,50,142.60
2010,05,21,11,51,135.20
2010,05,21,11,52,129.10
2010,05,21,11,53,125.30
2010,05,21,11,54,123.00
2010,05,21,11,55,124.00
2010,05,21,11,56,129.10
2010,05,21,11,57,135.20
2010,05,21,11,58,139.80
2010,05,21,11,59,143.40
2010,05,21,12,00,144.00
2010,05,21,12,01,141.30
2010,05,21,12,02,135.30
2010,05,21,12,03,131.60
2010,05,21,12,04,127.80
2010,05,21,12,05,127.20
2010,05,21,12,06,129.10
2010,05,21,12,07,133.60
2010,05,21,12,08,138.80
2010,05,21,12,09,144.80
2010,05,21,12,10,148.00
2010,05,21,12,11,146.80
2010,05,21,12,12,144.80
2010,05,21,12,13,139.10
2010,05,21,12,14,131.80
2010,05,21,12,15,122.80
2010,05,21,12,16,116.50
2010,05,21,12,17,113.00
2010,05,21,12,18,108.80
2010,05,21,12,19,107.00
2010,05,21,12,20,107.40
2010,05,21,12,21,109.00
2010,05,21,12,22,110.30
2010,05,21,12,23,114.10
2010,05,21,12,24,119.30
2010,05,21,12,25,127.70
2010,05,21,12,26,136.10
2010,05,21,12,27,143.20
2010,05,21,12,28,149.50
2010,05,21,12,29,154.90
2010,05,21,12,30,161.90
2010,05,21,12,31,170.70
2010,05,21,12,32,178.60
2010,05,21,12,33,185.40
2010,05,21,12,34,194.00
2010,05,21,12,35,201.50
2010,05,21,12,36,210.40
2010,05,21,12,37,225.40
2010,05,21,12,38,246.20
2010,05,21,12,39,270.40
2010,05,21,12,40,296.20
2010,05,21,12,41,322.30
2010,05,21,12,42,349.00
2010,05,21,12,43,373.70
2010,05,21,12,44,396.60
2010,05,21,12,45,417.00
2010,05,21,12,46,438.00
2010,05,21,12,47,461.00
2010,05,21,12,48,488.40
2010,05,21,12,49,515.80
2010,05,21,12,50,520.40
2010,05,21,12,51,475.60
2010,05,21,12,52,465.70
2010,05,21,12,53,449.30
2010,05,21,12,54,430.80
2010,05,21,12,55,428.50
2010,05,21,12,56,449.40
2010,05,21,12,57,454.40
2010,05,21,12,58,428.10
2010,05,21,12,59,439.30
2010,05,21,13,00,446.00
2010,05,21,13,01,446.00
2010,05,21,13,02,446.00
2010,05,21,13,03,446.00
2010,05,21,13,04,446.00
2010,05,21,13,05,518.00
2010,05,21,13,06,788.00
2010,05,21,13,07,651.80
2010,05,21,13,08,332.40
2010,05,21,13,09,334.30
2010,05,21,13,10,332.40
2010,05,21,13,11,317.70
2010,05,21,13,12,300.90
2010,05,21,13,13,288.00
2010,05,21,13,14,273.90
2010,05,21,13,15,254.20
2010,05,21,13,16,240.80
2010,05,21,13,17,230.00
2010,05,21,13,18,217.40
2010,05,21,13,19,206.70
2010,05,21,13,20,202.30
2010,05,21,13,21,191.80
2010,05,21,13,22,180.80
2010,05,21,13,23,172.70
2010,05,21,13,24,163.50
2010,05,21,13,25,157.90
2010,05,21,13,26,155.40
2010,05,21,13,27,152.50
2010,05,21,13,28,148.90
2010,05,21,13,29,145.00
2010,05,21,13,30,141.50
2010,05,21,13,31,139.20
2010,05,21,13,32,134.00
2010,05,21,13,33,129.80
2010,05,21,13,34,128.00
2010,05,21,13,35,128.00
2010,05,21,13,36,128.50
2010,05,21,13,37,131.30
2010,05,21,13,38,136.00
2010,05,21,13,39,141.40
2010,05,21,13,40,147.50
2010,05,21,13,41,156.20
2010,05,21,13,42,165.90
2010,05,21,13,43,175.60
2010,05,21,13,44,181.90
2010,05,21,13,45,184.70
2010,05,21,13,46,185.00
2010,05,21,13,47,183.00
2010,05,21,13,48,183.30
2010,05,21,13,49,186.20
2010,05,21,13,50,187.60
2010,05,21,13,51,184.70
2010,05,21,13,52,180.10
2010,05,21,13,53,177.20
2010,05,21,13,54,176.00
2010,05,21,13,55,176.00
2010,05,21,13,56,178.80
2010,05,21,13,57,187.60
2010,05,21,13,58,207.50
2010,05,21,13,59,228.00
2010,05,21,14,00,243.90
2010,05,21,14,01,255.80
2010,05,21,14,02,266.50
2010,05,21,14,03,272.30
2010,05,21,14,04,279.40
2010,05,21,14,05,289.10
2010,05,21,14,06,300.20
2010,05,21,14,07,311.20
2010,05,21,14,08,320.80
2010,05,21,14,09,336.60
2010,05,21,14,10,356.60
2010,05,21,14,11,383.00
2010,05,21,14,12,416.10
2010,05,21,14,13,447.50
2010,05,21,14,14,504.20
2010,05,21,14,15,519.00
2010,05,21,14,16,519.00
2010,05,21,14,17,1366.00
2010,05,21,14,18,1391.60
2010,05,21,14,19,1416.70
2010,05,21,14,20,1426.00
2010,05,21,14,21,1426.00
2010,05,21,14,22,1426.00
2010,05,21,14,23,1426.00
2010,05,21,14,24,998.70
2010,05,21,14,25,521.40
2010,05,21,14,26,519.00
2010,05,21,14,27,667.40
2010,05,21,14,28,754.00
2010,05,21,14,29,1234.00
2010,05,21,14,30,1356.30
2010,05,21,14,31,1340.70
2010,05,21,14,32,1339.00
2010,05,21,14,33,422.80
2010,05,21,14,34,397.80
2010,05,21,14,35,361.40
2010,05,21,14,36,336.00
2010,05,21,14,37,316.60
2010,05,21,14,38,291.50
2010,05,21,14,39,278.40
2010,05,21,14,40,258.50
2010,05,21,14,41,251.30
2010,05,21,14,42,246.10
2010,05,21,14,43,241.80
2010,05,21,14,44,248.90
2010,05,21,14,45,262.80
2010,05,21,14,46,291.80
2010,05,21,14,47,367.00
2010,05,21,14,48,398.20
2010,05,21,14,49,418.00
2010,05,21,14,50,430.60
2010,05,21,14,51,478.00
2010,05,21,14,52,478.00
2010,05,21,14,53,599.20
2010,05,21,14,54,807.00
2010,05,21,14,55,807.00
2010,05,21,14,56,504.80
2010,05,21,14,57,287.00
2010,05,21,14,58,287.30
2010,05,21,14,59,292.60
2010,05,21,15,00,300.80
2010,05,21,15,01,311.80
2010,05,21,15,02,322.50
2010,05,21,15,03,336.40
2010,05,21,15,04,354.30
2010,05,21,15,05,338.40
2010,05,21,15,06,337.20
2010,05,21,15,07,344.80
2010,05,21,15,08,360.60
2010,05,21,15,09,384.30
2010,05,21,15,10,423.70
2010,05,21,15,11,461.40
2010,05,21,15,12,492.50
2010,05,21,15,13,503.00
2010,05,21,15,14,752.50
2010,05,21,15,15,819.00
2010,05,21,15,16,506.10
2010,05,21,15,17,419.90
2010,05,21,15,18,399.50
2010,05,21,15,19,404.90
2010,05,21,15,20,410.00
2010,05,21,15,21,404.20
2010,05,21,15,22,385.80
2010,05,21,15,23,380.60
2010,05,21,15,24,375.50
2010,05,21,15,25,367.10
2010,05,21,15,26,361.70
2010,05,21,15,27,355.60
2010,05,21,15,28,341.90
2010,05,21,15,29,329.30
2010,05,21,15,30,327.00
2010,05,21,15,31,322.50
2010,05,21,15,32,291.70
2010,05,21,15,33,271.20
2010,05,21,15,34,263.70
2010,05,21,15,35,262.40
2010,05,21,15,36,264.30
2010,05,21,15,37,267.10
2010,05,21,15,38,272.10
2010,05,21,15,39,276.00
2010,05,21,15,40,279.60
2010,05,21,15,41,283.20
2010,05,21,15,42,289.50
2010,05,21,15,43,300.20
2010,05,21,15,44,307.00
2010,05,21,15,45,312.00
2010,05,21,15,46,321.90
2010,05,21,15,47,333.40
2010,05,21,15,48,359.70
2010,05,21,15,49,369.80
2010,05,21,15,50,352.40
2010,05,21,15,51,348.20
2010,05,21,15,52,341.70
2010,05,21,15,53,338.60
2010,05,21,15,54,337.10
2010,05,21,15,55,337.00
2010,05,21,15,56,333.00
2010,05,21,15,57,324.60
2010,05,21,15,58,317.90
2010,05,21,15,59,310.80
2010,05,21,16,00,303.10
2010,05,21,16,01,297.50
2010,05,21,16,02,294.10
2010,05,21,16,03,287.50
2010,05,21,16,04,282.60
2010,05,21,16,05,278.80
2010,05,21,16,06,277.50
2010,05,21,16,07,275.40
2010,05,21,16,08,273.20
2010,05,21,16,09,272.00
2010,05,21,16,10,272.00
2010,05,21,16,11,274.20
2010,05,21,16,12,277.40
2010,05,21,16,13,281.70
2010,05,21,16,14,288.50
2010,05,21,16,15,299.30
2010,05,21,16,16,308.20
2010,05,21,16,17,322.00
2010,05,21,16,18,339.50
2010,05,21,16,19,368.50
2010,05,21,16,20,367.10
2010,05,21,16,21,370.40
2010,05,21,16,22,362.40
2010,05,21,16,23,351.80
2010,05,21,16,24,354.10
2010,05,21,16,25,358.80
2010,05,21,16,26,354.10
2010,05,21,16,27,341.60
2010,05,21,16,28,340.40
2010,05,21,16,29,357.60
2010,05,21,16,30,400.40
2010,05,21,16,31,447.90
2010,05,21,16,32,456.60
2010,05,21,16,33,456.80
2010,05,21,16,34,416.50
2010,05,21,16,35,403.80
2010,05,21,16,36,398.30
2010,05,21,16,37,433.60
2010,05,21,16,38,442.90
2010,05,21,16,39,426.10
2010,05,21,16,40,409.20
2010,05,21,16,41,415.50
2010,05,21,16,42,419.90
2010,05,21,16,43,409.30
2010,05,21,16,44,418.60
2010,05,21,16,45,387.10
2010,05,21,16,46,372.10
2010,05,21,16,47,353.00
2010,05,21,16,48,359.40
2010,05,21,16,49,348.00
2010,05,21,16,50,359.40
2010,05,21,16,51,405.60
2010,05,21,16,52,401.20
2010,05,21,16,53,386.50
2010,05,21,16,54,350.60
2010,05,21,16,55,334.00
2010,05,21,16,56,305.50
2010,05,21,16,57,288.70
2010,05,21,16,58,280.10
2010,05,21,16,59,276.50
2010,05,21,17,00,274.30
2010,05,21,17,01,294.70
2010,05,21,17,02,309.00
2010,05,21,17,03,322.00
2010,05,21,17,04,303.50
2010,05,21,17,05,290.20
2010,05,21,17,06,260.20
2010,05,21,17,07,280.20
2010,05,21,17,08,277.10
2010,05,21,17,09,256.60
2010,05,21,17,10,252.60
2010,05,21,17,11,261.90